| time (UTC) | temp F | wind direction | speed knots | gust knots | rain 1hr in | rain 24hr in | rain mn in | humidity % | barometer mb |
| 20260504081557 | 0 | 0.0 | 0.0 | 0.00 | 0.00 | 0.00 | 1011.0 | ||
| 20260504050014 | 39 | 129 | 0.0 | 0.0 | 0.00 | 0.00 | 0.00 | 83 | 1010.6 |
| 20260504044517 | 39 | 131 | 0.0 | 0.0 | 0.00 | 0.00 | 0.00 | 83 | 1010.6 |
| 20260504043014 | 39 | 130 | 0.0 | 0.0 | 0.00 | 0.00 | 0.00 | 82 | 1010.6 |
| 20260504041532 | 39 | 131 | 0.0 | 0.0 | 0.00 | 0.00 | 0.00 | 82 | 1010.7 |
| 20260504040010 | 39 | 130 | 0.0 | 0.0 | 0.00 | 0.00 | 0.00 | 80 | 1010.6 |
| 20260504034502 | 39 | 130 | 0.0 | 0.0 | 0.00 | 0.00 | 0.00 | 78 | 1010.6 |
| 20260504031502 | 41 | 130 | 0.0 | 0.0 | 0.00 | 0.00 | 0.00 | 77 | 1010.4 |
| 20260504030001 | 41 | 130 | 0.0 | 0.0 | 0.00 | 0.00 | 0.00 | 74 | 1010.3 |
| 20260504024558 | 42 | 130 | 0.0 | 0.0 | 0.00 | 0.00 | 0.00 | 73 | 1010.3 |
| 20260504023058 | 42 | 130 | 0.0 | 0.0 | 0.00 | 0.00 | 0.00 | 70 | 1010.4 |
| 20260504021558 | 43 | 130 | 0.0 | 0.0 | 0.00 | 0.00 | 0.00 | 67 | 1010.3 |
| 20260504020122 | 44 | 130 | 0.0 | 0.0 | 0.00 | 0.00 | 0.00 | 65 | 1010.2 |
| 20260504014559 | 45 | 130 | 0.0 | 0.0 | 0.00 | 0.00 | 0.00 | 60 | 1010.1 |
| 20260504013115 | 46 | 130 | 0.0 | 0.0 | 0.00 | 0.00 | 0.00 | 58 | 1010.1 |
| 20260504011554 | 48 | 130 | 0.0 | 0.0 | 0.00 | 0.00 | 0.00 | 54 | 1010.1 |
| 20260504010055 | 49 | 130 | 0.0 | 0.0 | 0.00 | 0.00 | 0.00 | 51 | 1009.9 |
| 20260504004553 | 50 | 128 | 0.0 | 0.9 | 0.00 | 0.00 | 0.00 | 50 | 1009.8 |
| 20260504003049 | 52 | 103 | 0.0 | 0.9 | 0.00 | 0.00 | 0.00 | 46 | 1009.6 |
| 20260504001550 | 53 | 35 | 0.0 | 0.9 | 0.00 | 0.00 | 0.00 | 44 | 1009.2 |
| 20260504000049 | 53 | 45 | 0.0 | 1.7 | 0.00 | 0.00 | 0.00 | 41 | 1009.0 |
| 20260503234548 | 54 | 163 | 0.0 | 2.6 | 0.00 | 0.00 | 0.00 | 38 | 1008.9 |
| 20260503233046 | 55 | 105 | 0.0 | 0.9 | 0.00 | 0.00 | 0.00 | 36 | 1008.8 |
| 20260503231548 | 55 | 286 | 0.0 | 2.6 | 0.00 | 0.00 | 0.00 | 34 | 1008.6 |
| 20260503230046 | 56 | 125 | 0.0 | 1.7 | 0.00 | 0.00 | 0.00 | 32 | 1008.5 |
| 20260503224547 | 56 | 128 | 0.0 | 3.5 | 0.00 | 0.00 | 0.00 | 32 | 1008.3 |
| 20260503223043 | 56 | 11 | 1.7 | 4.3 | 0.00 | 0.00 | 0.00 | 30 | 1008.3 |
| 20260503221556 | 57 | 83 | 0.0 | 6.1 | 0.00 | 0.00 | 0.00 | 30 | 1008.1 |
| 20260503220042 | 59 | 30 | 1.7 | 6.1 | 0.00 | 0.00 | 0.00 | 29 | 1008.2 |
| 20260503214542 | 58 | 58 | 0.0 | 7.8 | 0.00 | 0.00 | 0.00 | 29 | 1008.2 |
| 20260503213043 | 58 | 20 | 2.6 | 7.0 | 0.00 | 0.00 | 0.00 | 30 | 1008.1 |
| 20260503211537 | 58 | 13 | 3.5 | 6.1 | 0.00 | 0.00 | 0.00 | 31 | 1008.1 |
| 20260503210036 | 59 | 313 | 3.5 | 8.7 | 0.00 | 0.00 | 0.00 | 31 | 1008.1 |
| 20260503204534 | 58 | 90 | 3.5 | 11.3 | 0.00 | 0.00 | 0.00 | 31 | 1008.1 |
| 20260503203034 | 56 | 87 | 0.9 | 12.2 | 0.00 | 0.00 | 0.00 | 34 | 1008.2 |
| 20260503200026 | 55 | 68 | 4.3 | 15.6 | 0.00 | 0.00 | 0.00 | 35 | 1008.5 |
| 20260503194521 | 55 | 83 | 3.5 | 11.3 | 0.00 | 0.00 | 0.00 | 36 | 1008.7 |
| 20260503193056 | 54 | 9 | 6.1 | 12.2 | 0.00 | 0.00 | 0.00 | 36 | 1008.8 |
| 20260503191607 | 55 | 117 | 4.3 | 12.2 | 0.00 | 0.00 | 0.00 | 38 | 1009.0 |
| 20260503190041 | 54 | 123 | 1.7 | 7.8 | 0.00 | 0.00 | 0.00 | 40 | 1009.1 |
| 20260503184540 | 53 | 21 | 4.3 | 8.7 | 0.00 | 0.00 | 0.00 | 40 | 1009.3 |
| 20260503183038 | 53 | 32 | 1.7 | 9.6 | 0.00 | 0.00 | 0.00 | 40 | 1009.5 |
| 20260503181547 | 53 | 15 | 2.6 | 12.2 | 0.00 | 0.00 | 0.00 | 43 | 1009.7 |
| 20260503180006 | 51 | 291 | 4.3 | 7.8 | 0.00 | 0.00 | 0.00 | 42 | 1009.7 |
| 20260503174505 | 51 | 360 | 1.7 | 8.7 | 0.00 | 0.00 | 0.00 | 41 | 1009.7 |
| 20260503173005 | 53 | 81 | 1.7 | 10.4 | 0.00 | 0.00 | 0.00 | 42 | 1009.8 |
| 20260503171505 | 52 | 3 | 2.6 | 8.7 | 0.00 | 0.00 | 0.00 | 42 | 1009.9 |
| 20260503160108 | 51 | 136 | 2.6 | 9.6 | 0.00 | 0.00 | 0.00 | 41 | 1010.0 |